Regional Weather Roundup
Issued by NWS

Home | Current Version | Previous Version | Graphics & Text | Print | Product List | Glossary On
Versions: 1 2 3 4 5 6 7 8 9 10 11 12 13 14 15 16 17 18 19 20 21 22 23 24 25 26 27 28 29 30 31 32 33 34 35 36 37 38 39 40 41 42 43 44 45 46 47 48 49 50
000
ASUS43 KFSD 290710
RWRSD

WEATHER ROUNDUP FOR SOUTH DAKOTA
NATIONAL WEATHER SERVICE SIOUX FALLS SD
200 AM CDT SUN MAY 29 2016

NOTE: "FAIR" INDICATES FEW OR NO CLOUDS BELOW 12,000 FEET WITH NO
SIGNIFICANT WEATHER AND/OR OBSTRUCTIONS TO VISIBILITY.


SDZ001>005-009-010-012>017-290800-
NORTHWEST AND NORTH CENTRAL SOUTH DAKOTA

CITY           SKY/WX    TMP DP  RH WIND       PRES   REMARKS
BUFFALO          N/A     50  42  74 W6        29.98R
FAITH            N/A     56  49  77 NW7       30.01R
MOBRIDGE       CLEAR     55  51  86 NW7       29.94S
$$

SDZ012>016-024>037-041>051-057-063-072>074-290800-
SOUTHWEST AND SOUTH CENTRAL SOUTH DAKOTA

CITY           SKY/WX    TMP DP  RH WIND       PRES   REMARKS
RAPID CTY ARPT CLEAR     51  45  79 NW8       30.04S
PIERRE         CLOUDY    53  52  96 N6        29.97R
CUSTER         CLEAR     40  38  93 CALM      30.13R
ELLSWORTH AFB  CLEAR     49  46  87 NW6       30.04R
PHILIP         PTCLDY    51  49  92 W6        30.01R
PINE RIDGE     CLEAR     42  40  92 CALM      30.07S
WINNER         FAIR      59  54  83 W8        30.00R
$$

SDZ004>011-016>023-039-040-290800-
NORTHEAST SOUTH DAKOTA

CITY           SKY/WX    TMP DP  RH WIND       PRES   REMARKS
ABERDEEN       CLOUDY    59  56  89 W7        29.92R
WATERTOWN      CLEAR     58  55  90 W7        29.92R
BROOKINGS      CLOUDY    55  54  96 W5        29.93S
SISSETON         N/A     59  56  89 N5        29.88S
$$

SDZ017-020-022-023-036>040-048>070-290800-
SOUTHEAST SOUTH DAKOTA

CITY           SKY/WX    TMP DP  RH WIND       PRES   REMARKS
SIOUX FALLS    CLEAR     57  55  93 SW3       29.95R
HURON          CLOUDY    60  56  86 SW7       29.93F
CHAMBERLAIN    CLOUDY    60  60  99 CALM      29.98R
MITCHELL       CLOUDY    61  58  90 SW6       29.95S
YANKTON        PTCLDY    57  54  88 SW5       29.96S
$$

ABBREVIATIONS USED IN REMARKS
   TC - TEMPERATURE IN CELSIUS
  WCI - WIND CHILL INDEX
   HX - HEAT INDEX
  VSB - VISIBILITY




USA.gov is the U.S. government's official web portal to all federal, state and local government web resources and services.